Location: Mound City (historical)
(34.0564°N, 117.2656°W)
Time: 16:06:58
(UTC+00:00)

Daily predictions for brighter satellites

Satellite Brightness Start Highest point End
(mag) Time Altitude Azimuth Time Altitude Azimuth Time Altitude Azimuth
Cosmos 2322 Rocket 2.9 12:08:33 50° ENE 12:08:33 50° ENE 12:13:19 10° NNE
Cosmos 2263 Rocket 3.3 12:11:19 36° NNE 12:12:36 41° ENE 12:17:55 10° SE
ATLAS 3B R/B 3.7 12:20:53 22° N 12:24:42 41° NE 12:31:12 10° ESE
COSMO-SKYMED 1 4.4 12:28:58 10° SE 12:32:42 29° ENE 12:36:26 10° NNE
NOSS 3-2 (C) 4.0 12:29:59 42° NNW 12:33:13 88° ENE 12:41:49 10° SSE
ALOS 3.6 12:29:05 10° NNE 12:33:25 37° E 12:37:44 10° SSE
Cosmos 2181 Rocket 3.9 12:35:03 10° S 12:41:15 87° E 12:47:36 10° N
CENTAUR R/B 3.2 12:36:49 27° NNW 12:42:00 81° ENE 12:50:47 10° SSE
FENGYUN 3A 4.4 12:39:07 10° NNE 12:44:23 51° E 12:49:39 10° S
Milstar 3 Cent rocket 4.5 12:35:29 28° WSW 12:47:03 64° S 12:56:26 10° E
Meteor 1-21 Rocket 4.3 12:47:43 60° WSW 12:47:43 60° WSW 12:53:13 10° S
NOSS 3-2 (A) 4.3 12:48:34 45° W 12:50:07 51° WSW 12:58:19 10° S
Cosmos 2360 Rocket 2.6 12:46:03 10° S 12:51:38 64° ESE 12:57:14 10° NNE
SL-16 R/B 2.6 12:52:53 44° NNW 12:52:53 44° NNW 12:57:17 10° N
USA 32 4.0 12:49:06 10° N 12:54:22 87° E 12:59:37 10° S
Timation 1 Rocket 4.2 12:53:59 38° NNW 12:56:26 77° WSW 13:02:24 10° SSE
STARLINK 1058 4.5 13:00:39 37° N 13:00:39 37° N 13:03:35 10° NE
Cosmos 2341 Rocket 3.9 12:54:23 10° NNW 13:00:32 64° W 13:06:38 10° S
Cosmos 1328 3.6 13:02:55 67° NNW 13:03:26 87° W 13:07:22 10° S
STARLINK 1043 4.4 13:05:25 37° N 13:05:25 37° N 13:08:30 10° NNE
CZ-3 R/B 3.2 12:53:03 29° W 13:05:09 62° SSW 13:12:07 10° ESE
STARLINK 1065 4.4 13:10:12 36° NNW 13:10:12 36° NNW 13:13:26 10° NNE
Cosmos 1371 Rocket 4.0 13:07:14 13° NNW 13:12:04 83° ENE 13:17:25 10° SSE
CZ-4B R/B 4.0 13:07:46 10° NNE 13:13:05 51° E 13:18:17 10° S
STARLINK 1063 4.4 13:14:57 34° NNW 13:14:57 34° NNW 13:18:20 10° NNE
RESURS DK-1 3.5 13:17:20 27° NNW 13:17:20 27° NNW 13:19:45 10° N
ATLAS 2AS CENTAUR R/B 4.0 13:15:28 24° NW 13:16:07 24° NW 13:22:20 10° N
Cosmos 2237 4.1 13:13:46 10° SSW 13:19:27 76° WNW 13:25:11 10° NNE
STARLINK 1064 4.5 13:19:44 32° NNW 13:19:44 32° NNW 13:23:15 10° NNE
SKYMED 2 3.4 13:16:17 10° S 13:20:36 74° W 13:24:56 10° NNW
Cosmos 2218 Rocket 3.9 13:15:15 10° N 13:21:36 74° W 13:27:49 10° S
Cosmos 1953 Rocket 3.9 13:21:09 39° WNW 13:21:42 41° W 13:25:47 10° SSW
NOAA 6 4.3 13:18:18 10° NNE 13:23:31 73° ESE 13:28:39 10° S
Alouette 2 Rocket 4.2 13:20:41 10° S 13:25:21 55° E 13:28:58 10° NNE
Cosmos 1703 3.5 13:25:01 39° WNW 13:25:41 43° W 13:29:23 10° SSW
Lacrosse 5 3.4 13:26:04 18° NNW 13:26:04 18° NNW 13:29:20 10° N
METEOR-M 4.1 13:22:19 10° N 13:27:36 60° WNW 13:32:49 10° SSW
Cosmos 1959 Rocket 4.4 13:21:54 10° NNW 13:27:59 66° W 13:34:07 10° S
COSMOS 2428 4.2 13:24:11 10° S 13:29:26 39° ESE 13:34:43 10° NE
OAO 1 4.5 13:30:51 27° W 13:33:58 88° S 13:39:29 10° ESE
STARLINK-60 2.9 13:35:58 31° NW 13:37:26 81° SW 13:40:46 10° SE
Cosmos 1624 Rocket 4.0 13:33:41 10° NNW 13:38:49 62° WSW 13:43:54 10° S
Cosmos 1174 3.6 13:35:05 10° SSW 13:39:29 79° WNW 13:43:03 10° NNE
STARLINK-29 4.0 13:41:31 16° NNW 13:44:04 48° NE 13:47:30 10° ESE
STARLINK-52 4.1 13:44:13 14° NNW 13:46:57 44° NE 13:50:19 10° ESE
Cosmos 2366 rocket 4.2 13:41:07 10° NNW 13:47:09 47° W 13:53:09 10° SSW
PAYLOAD B 4.3 13:41:57 10° N 13:47:25 54° WNW 13:52:48 10° SSW
Cosmos 1048 Rocket 4.3 13:42:39 10° S 13:47:54 72° ESE 13:53:07 10° NNE
Milstar 3 4.1 13:38:33 10° WSW 13:48:36 45° SSE 13:55:14 10° E
Cosmos 1340 Rocket 2.7 13:44:52 10° S 13:48:45 89° ESE 13:52:40 10° N
Cosmos 2322 Rocket 3.5 13:50:29 17° W 13:52:09 19° WNW 13:56:05 10° NNW
Cosmos 1461 4.0 13:51:19 10° S 13:55:01 45° ESE 13:58:50 10° NE
Cosmos 2056 Rocket 3.9 13:50:00 10° NNW 13:55:08 44° WSW 14:00:12 10° S
Hubble Space Telescope 3.4 13:53:08 10° SSW 13:55:42 16° SSE 13:58:18 10° ESE
Lacrosse 5 rocket 4.1 13:54:38 10° NNE 13:56:03 11° NNE 13:57:28 10° NE
Cosmos 2263 Rocket 3.3 13:53:06 15° WNW 13:56:11 23° W 14:00:28 10° SSW
Cosmos 1300 3.2 13:55:11 10° SSW 13:58:43 37° W 14:02:17 10° N
Cosmos 1076 Rocket 3.9 13:54:45 10° N 13:59:07 68° E 14:03:25 10° SSE
GPS 2-04 Rocket1 4.3 13:59:34 10° SW 14:02:37 28° SSE 14:05:46 10° E
ADEOS Rocket 2.9 13:59:06 10° SSE 14:04:33 81° ENE 14:10:18 10° N
Okean O Rocket 2.1 14:00:30 10° N 14:04:36 38° WNW 14:08:41 10° SW
Meteor 2-1 Rocket 4.2 14:00:00 10° S 14:05:39 89° WNW 14:11:14 10° N
Cosmos 1844 Rocket 2.9 14:01:25 10° NNW 14:07:04 79° ENE 14:12:44 10° SSE
COSMO-SKYMED 1 3.9 14:05:41 10° SW 14:08:49 19° W 14:11:58 10° NW
Cosmos 1437 2.7 14:06:23 10° NNW 14:09:21 51° W 14:12:17 10° S
ALOS 3.6 14:07:24 10° NNW 14:10:31 18° WNW 14:13:36 10° WSW
Cosmos 1455 3.6 14:07:02 10° SSE 14:10:42 44° E 14:14:24 10° NNE
H-2A R/B 2.7 14:09:14 10° N 14:13:04 63° WNW 14:16:51 10° SSW
ATLAS 3B R/B 3.4 14:09:12 10° NW 14:15:14 34° WSW 14:21:26 10° S
Okean-O 4.1 14:12:22 10° NNE 14:16:37 43° E 14:20:49 10° S
AQUARIUS 4.1 14:12:30 10° N 14:17:01 84° WNW 14:21:30 10° SSW
Cosmos 2333 Rocket 2.2 14:11:40 10° SSW 14:17:24 69° WNW 14:23:10 10° NNE
Cosmos 2084 Rocket 4.1 14:15:23 10° WSW 14:19:23 36° NW 14:23:28 10° NNE
Cosmos 2058 2.9 14:18:22 10° N 14:22:34 72° W 14:26:45 10° S
USA 215 3.8 14:18:23 10° ESE 14:24:46 59° NE 14:31:09 10° NW
